Regional Weather Roundup
Issued by NWS

Home | Current Version | Previous Version | Graphics & Text | Print | Product List | Glossary On
Versions: 1 2 3 4 5 6 7 8 9 10 11 12 13 14 15 16 17 18 19 20 21 22 23 24 25 26 27 28 29 30 31 32 33 34 35 36 37 38 39 40 41 42 43 44 45 46 47 48 49 50
000
ASUS45 KCYS 241510
RWRWY

WYOMING REGIONAL WEATHER ROUNDUP
NATIONAL WEATHER SERVICE CHEYENNE WY
800 AM MST TUE JAN 24 2017

NOTE:  "FAIR" INDICATES FEW OR NO CLOUDS BELOW 12,000 FEET
WITH NO SIGNIFICANT WEATHER AND/OR OBSTRUCTIONS TO VISIBILITY.

WYZ001-241600-
YELLOWSTONE NATIONAL PARK

CITY           SKY/WX    TMP DP  RH WIND       PRES   REMARKS
LK YELLOWSTONE   N/A     12   7  80 VRB5      29.60R WCI   4
W YELLOWSTONE  NOT AVBL

$$
WYZ002>013-054>058-071-098>099-241600-
NORTHERN WYOMING

CITY           SKY/WX    TMP DP  RH WIND       PRES   REMARKS
JACKSON        LGT SNOW  19  19 100 CALM      29.61R VSB 1
CODY           LGT SNOW  19  15  84 N12       29.74R FOG     WCI   7
GREYBULL       LGT SNOW  20  17  88 NW6       29.72R FOG     WCI  12
WORLAND        LGT SNOW  21  19  92 W8        29.72R FOG     WCI  11
SHERIDAN       LGT SNOW  20  17  88 W7        29.80R FOG     WCI  11
BUFFALO        LGT SNOW  19  14  81 N20       29.73R WCI   3
GILLETTE       LGT SNOW  14  11  87 N13       29.75R VSB 1   WCI   0
HULETT         CLOUDY    18  14  86 MISG      29.75R
NEWCASTLE      LGT SNOW  18  18 100 CALM      29.68R VSB 3/4

$$
WYZ014>020-022>026-101>103-241600-
CENTRAL WYOMING

CITY           SKY/WX    TMP DP  RH WIND       PRES   REMARKS
BIG PINEY      SNOW      18  16  92 S5        29.59R VSB 1/2 WCI  11
PINEDALE       LGT SNOW  18  18 100 W8        29.59R WCI   7
DUBOIS         NOT AVBL
LANDER         LGT SNOW  17  16  95 SE5       29.67R FOG     WCI  10
RIVERTON       LGT SNOW  16  14  92 SE8       29.68R FOG     WCI   5
CASPER         LGT SNOW  15  11  83 N10       29.68R FOG     WCI   2
DOUGLAS        LGT SNOW  16  13  88 NW8       29.69R FOG     WCI   5

$$
WYZ021-027>030-104>119-241600-
SOUTHERN WYOMING

CITY           SKY/WX    TMP DP  RH WIND       PRES   REMARKS
EVANSTON       CLOUDY    17  12  80 SW18      29.62R WCI   1
ROCK SPRINGS   SNOW      18  14  84 E8        29.59S VSB 1/4 WCI   8
RAWLINS        FLURRIES  14  10  84 NW10      29.57R WCI   1
LARAMIE        MOCLDY    13  10  88 E3        29.51S
CHEYENNE       CLOUDY    22  20  92 N14G22    29.55R FOG     WCI   9
TORRINGTON     CLOUDY    21  15  78 N6        29.66R WCI  13

$$



USA.gov is the U.S. government's official web portal to all federal, state and local government web resources and services.